User: anonymous
Location: Unspecified
(0.0000°N, 0.0000°E)
Time: 02:12:36
(UTC+00:00)
Language:

Landsat 7 - Orbit

View from above orbital plane
View from above orbital plane
View from above satellite
View from above satellite

Ground track
Ground track

The orbit data is extracted from the following two-line orbital elements,

1 25682U 99020A   14293.20419656  .00000425  00000-0  10434-3 0  7236
2 25682 098.2271 001.1846 0001231 087.7701 272.3660 14.57098133825193
Epoch (UTC): 20 October 2014 04:54:02
Eccentricity: 0.0001231
inclination: 98.2271°
perigee height: 701 km
apogee height: 703 km
right ascension of ascending node: 1.1846°
argument of perigee: 87.7701°
revolutions per day: 14.57098133
mean anomaly at epoch: 272.3660°
orbit number at epoch: 82519

The dashed part of the orbit path shows where the satellite is in the earth's shadow,  

DLR